Location: Domont
(49.0278°N, 2.3264°E)
Time: 16:09:52
(UTC+00:00)

NOAA 19 - Pass Details

Date: 03 July 2022
Orbit: 840 x 861 km, 99.1° (Epoch: 17 August)

Event Time Altitude Azimuth Distance (km) Brightness Sun altitude
Rises 20:35:08 0° 216° (SW) 3,417 8.3 -5.4°
Reaches altitude 10° 20:38:40 10° 240° (WSW) 2,483 7.8 -5.8°
Maximum altitude 20:41:38 15° 273° (W) 2,171 8.1 -6.2°
Drops below altitude 10° 20:44:37 10° 306° (NW) 2,486 9.3 -6.5°
Sets 20:48:11 0° 330° (NNW) 3,423 10.4 -6.9°
